Location: Dunedin
(45.8900°S, 170.5000°E)
Time: 06:56:23
(UTC+13:00)

ISS - Visible Passes

Search period start: 07 December 2025 00:00
Search period end: 17 December 2025 00:00
Orbit: 416 x 421 km, 51.6° (Epoch: 06 December)

Date Brightness Start Highest point End Pass type
(mag) Time Alt. Az. Time Alt. Az. Time Alt. Az.
07 Dec -1.8 01:34:01 10° WSW 01:37:08 31° S 01:40:15 10° ESE visible
07 Dec -2.1 03:11:15 10° WSW 03:14:29 37° SSE 03:17:43 10° E visible
07 Dec -3.7 04:48:01 10° WSW 04:51:26 61° NNW 04:54:49 10° NE visible
07 Dec -3.9 23:08:47 10° NW 23:12:10 74° NNE 23:15:36 10° ESE visible
08 Dec -2.0 00:46:00 10° W 00:49:12 35° SSW 00:52:24 10° ESE visible
08 Dec -1.8 02:23:24 10° WSW 02:26:33 33° S 02:29:42 10° ESE visible
08 Dec -3.7 04:00:12 10° WSW 04:03:39 88° SSE 04:07:05 10° ENE visible
08 Dec -3.5 22:21:07 10° NW 22:24:24 47° NE 22:27:43 10° ESE visible
08 Dec -2.4 23:57:58 10° W 00:01:15 42° SSW 00:04:33 10° ESE visible
09 Dec -1.7 01:35:29 10° WSW 01:38:35 30° S 01:41:40 10° ESE visible
09 Dec -3.2 03:12:23 10° WSW 03:15:47 62° SSE 03:19:12 10° ENE visible
09 Dec -2.7 04:49:30 10° W 04:52:24 25° NW 04:55:15 10° NNE visible
09 Dec -2.9 23:09:58 10° W 23:13:19 54° SSW 23:16:43 10° ESE visible
10 Dec -1.7 00:47:29 10° WSW 00:50:35 30° S 00:53:40 10° ESE visible
10 Dec -2.6 02:24:33 10° WSW 02:27:52 46° SSE 02:31:12 10° E visible
10 Dec -3.3 04:01:25 10° WSW 04:04:39 39° NW 04:07:52 10° NNE visible
10 Dec -3.5 22:21:59 10° WNW 22:25:24 77° SSW 22:28:50 10° ESE visible
10 Dec -1.8 23:59:26 10° WSW 00:02:33 31° S 00:05:40 10° ESE visible
11 Dec -2.2 01:36:39 10° WSW 01:39:53 37° SSE 01:43:07 10° E visible
11 Dec -3.8 03:13:26 10° WSW 03:16:50 63° NNW 03:20:13 10° NE visible
11 Dec -1.6 04:52:42 10° NW 04:53:02 10° NW 04:53:21 10° NW visible
11 Dec -2.0 23:11:19 10° W 23:14:30 35° SSW 23:17:42 10° ESE visible
12 Dec -1.9 00:48:43 10° WSW 00:51:52 32° S 00:55:00 10° ESE visible
12 Dec -3.8 02:25:30 10° WSW 02:28:57 86° SSE 02:29:33 58° ENE visible
12 Dec -2.3 22:23:10 10° W 22:26:27 42° SSW 22:29:45 10° ESE visible
13 Dec -1.7 00:00:41 10° WSW 00:03:46 30° S 00:06:52 10° ESE visible
13 Dec -3.3 01:37:35 10° WSW 01:40:59 61° SSE 01:41:48 44° E visible
13 Dec -1.7 23:12:35 10° WSW 23:15:40 30° S 23:18:45 10° ESE visible
14 Dec -2.7 00:49:38 10° WSW 00:52:58 45° SSE 00:54:41 24° E visible
14 Dec -1.6 02:26:30 10° WSW 02:27:33 18° W 02:27:33 18° W visible
14 Dec -1.8 22:24:25 10° WSW 22:27:32 31° S 22:30:39 10° ESE visible
15 Dec -2.2 00:01:38 10° WSW 00:04:52 37° SSE 00:07:47 12° E visible
15 Dec -2.7 01:38:25 10° WSW 01:40:40 37° W 01:40:40 37° W visible
15 Dec -2.0 23:13:35 10° WSW 23:16:43 32° S 23:19:51 10° ESE visible
16 Dec -3.8 00:50:23 10° WSW 00:53:49 84° SSE 00:53:53 83° ESE visible
16 Dec -1.8 22:25:27 10° WSW 22:28:32 30° S 22:31:37 10° ESE visible
